Vertical_Velocity
0 -0 2 -2 10 3 -2 4 -0 -2 2 -2 -4 -1 1 -3 1 -4 2 -2 -2 -0 -2 1 0 -1 0 -0 1 1 1 -0 -1 -1 -1 -1 0 0 -1 -2 -0 -1 0 0 -0 -0 1 1 3
-2 -1 -2 -7 3 -2 1 -1 3 -1 -1 -0 -0 1 -1 -3 -1 -1 1 -3 -2 -0 -1 -0 1 2 1 -0 1 1 -1 0 -0 -0 -1 0 -1 -1 -1 -1 -0 -0 -1 -1 -0 -1 -0 2 -1
0 4 2 5 -2 3 4 -4 2 4 4 4 -3 0 0 -2 2 1 2 1 1 0 -0 0 1 2 0 1 -2 -1 0 -0 1 -0 -0 -1 -1 -2 -0 -0 -1 0 0 -0 1 1 1 0 -2
10 15 -6 -4 4 -1 1 -1 2 -4 4 3 -4 -0 1 -1 -3 -3 -0 -0 -0 -1 -0 0 -0 -0 -1 -2 -0 1 1 1 0 -0 -1 -0 -0 -0 -1 -1 1 1 -1 -1 -1 0 -1 -2 1
3 -5 -5 -10 1 -3 2 5 2 -1 -3 -1 1 -3 -2 2 -2 -3 1 0 -1 0 1 -1 -0 -0 0 -1 -0 1 0 1 -0 0 -0 -1 -0 -0 0 -0 2 2 -0 1 0 2 0 -2 -2
0 2 -5 -4 -6 -5 0 -1 10 1 -2 -2 3 -1 3 2 -3 -0 -0 -0 -1 -1 1 -1 -0 -1 1 1 2 -0 1 -1 -1 1 -0 0 0 1 0 0 1 -0 -1 0 -1 -1 -3 -2 -0
-3 -0 -1 -5 -1 -6 -5 -4 -1 -3 0 1 -2 -2 2 2 -0 -0 -3 -1 -0 1 -1 -1 -0 -0 1 1 0 0 -1 -0 1 -1 0 -1 -1 0 0 1 0 -1 1 -1 1 -1 -2 2 -2
-1 -6 1 0 -3 -6 1 3 3 10 3 -2 0 -2 -2 3 0 -1 -0 0 -0 -1 0 -1 -1 -1 -0 1 -0 -1 -1 0 -1 -0 -0 -0 -0 -2 -3 1 1 -1 -2 -3 -2 -2 -5 -2 0
0 -1 1 -0 -3 2 -2 3 2 1 -4 1 1 -2 4 0 1 -0 1 1 1 -0 1 0 -1 -1 -0 -0 -1 -2 -0 -1 -1 -0 -1 -2 -2 0 -0 0 2 2 0 -4 -2 -1 1 -3 -1
3 -2 -5 6 -4 -7 -5 -3 2 3 6 -3 -2 -1 1 -1 -0 1 1 1 -1 1 2 1 -1 -1 -0 -0 -1 -1 0 -0 1 -1 0 -1 -2 0 1 0 -2 3 -1 -2 -4 0 -0 3 0
-0 -3 -3 -3 -6 -8 -5 -3 -2 -0 5 3 7 2 -1 2 2 0 -2 0 1 1 1 1 -1 -0 -0 -2 -2 -0 -0 1 -0 -2 -1 -0 -0 0 -2 0 -1 2 3 -3 -2 -2 -2 -2 -1
-0 -7 -7 5 7 -8 -7 -1 -2 2 7 -4 -3 2 0 -2 -0 -1 -1 -0 1 0 0 1 -0 -1 -1 -1 -1 -0 0 2 -1 -1 0 -1 -0 -0 -1 -0 -1 2 -1 -1 1 1 -1 -2 -3
-1 -6 -8 1 5 12 -2 -6 -13 -3 7 -9 0 5 -1 -4 -1 0 1 0 1 1 -1 0 -0 -1 -1 -2 -2 1 -0 -0 1 -1 1 -2 -1 -0 -0 -0 1 -1 -1 -3 -1 -0 -1 -1 0
1 -5 -7 -4 -6 29 -5 0 0 -0 0 -4 -0 3 2 -1 -2 1 -0 -1 -0 -2 -1 1 -2 -1 0 -0 -1 0 -1 -0 -2 1 -1 -3 4 -0 -3 -3 0 -1 2 4 2 2 0 0 0
-1 0 -6 -5 -1 -6 -3 -1 0 2 1 2 -2 2 5 2 -2 -3 1 1 -1 -0 1 0 -3 0 0 1 -0 1 1 -2 -3 -0 0 -0 5 1 -1 2 1 1 0 1 3 2 2 2 0
-2 -1 0 2 -7 -5 -0 -4 1 6 6 -0 0 3 -0 3 -0 -3 -1 1 -1 -1 -0 -1 1 -1 -0 -0 1 -0 0 -2 0 -0 -0 3 -0 -1 -1 1 1 2 1 0 1 0 0 1 1
-4 4 10 -3 -10 -5 -1 2 -5 7 10 1 2 -7 -1 8 11 -3 -1 -2 -2 -1 -0 0 -2 -1 2 0 -0 -1 0 -1 0 1 1 0 -0 2 1 1 1 1 0 2 1 2 2 -0 1
0 4 5 -3 4 -3 4 -7 -10 1 1 -0 2 1 0 -1 -0 2 -0 -1 -2 -1 -3 -2 -2 -0 2 0 -2 -1 -2 -1 -0 -2 -1 -3 1 0 -0 1 0 -0 0 0 1 2 -0 0 -1
1 5 1 0 -1 -5 4 1 3 -1 2 -4 6 3 3 -1 1 8 -1 -0 -2 -2 -4 -3 -0 1 -0 2 -0 -2 -1 -1 -1 1 -1 0 -1 3 3 -1 1 -2 0 0 2 4 3 3 4
-0 0 -1 3 -0 -4 1 2 -4 -2 -2 2 1 2 1 3 -0 -2 6 6 4 1 0 -0 -2 -1 1 0 -1 -1 -1 -1 0 -1 -2 0 1 -2 -1 -1 -1 0 1 1 0 -1 1 1 2
1 -3 6 11 0 -2 1 1 -4 -1 -3 2 1 1 5 -0 -2 -1 -2 0 4 5 3 3 0 -1 0 -0 -3 -2 -1 -1 -2 -2 -1 0 -0 -1 -1 -0 1 0 1 1 -0 -1 -2 -1 -1
-6 8 12 5 -3 -2 -2 -1 -5 -1 -0 -4 -4 2 5 7 -4 1 -1 0 0 1 3 2 4 3 -0 -1 -1 0 0 -1 -1 -1 -1 -1 -0 3 2 3 0 1 0 -1 -0 -0 -1 -0 -3
19 3 3 11 0 4 -5 -13 14 2 -13 -4 -1 7 3 2 -4 0 1 -1 -1 -1 -1 -1 2 1 0 -0 0 1 1 1 1 -1 -0 -0 -1 -1 1 -0 -1 -2 -2 -2 -0 0 -1 -2 0
12 -6 -1 4 2 -16 3 -7 3 -10 10 -2 -2 2 4 -0 -4 -7 5 1 -0 0 -2 -3 0 1 3 -0 -0 -0 1 2 2 0 -1 0 -1 0 0 0 -2 -2 -2 -0 -0 -1 -1 -1 -0
-5 2 -5 -12 -17 -14 6 -14 11 1 -0 0 -3 1 2 2 -2 -2 -4 -2 -2 -1 -1 -2 -2 -0 0 3 1 1 -1 2 1 1 -1 -1 -1 -2 0 -1 -3 -2 -1 0 -4 -3 -4 -2 -1
6 2 4 -9 -5 -4 5 -26 -2 -2 1 -2 -0 -1 -1 -4 -1 14 2 -4 -3 -5 -0 -2 -2 -1 0 1 3 1 -2 -1 0 0 1 1 1 -1 0 -1 -2 1 -1 -1 -2 -3 -3 -4 -2
16 -8 14 2 1 -3 0 -7 -11 2 -7 -6 0 1 -1 2 -3 2 4 0 -4 -3 -1 -0 -1 -1 -0 -2 -0 2 -0 -1 -0 -0 -0 -0 -2 -1 -2 -3 -2 -3 -3 -3 -3 -2 -3 -3 -3
-7 12 -5 -10 -14 -24 2 -10 -18 -2 9 7 2 -3 -1 -5 -2 3 -9 3 -1 -3 1 -0 -1 -3 -0 -1 -1 2 -0 -1 0 1 -0 -0 -2 -2 -3 -1 -2 -1 -3 -4 -4 -3 0 2 1
-6 -8 -12 1 -3 -3 1 -31 16 10 4 -1 -5 -5 -0 8 -5 0 4 5 7 -5 3 -1 0 -1 -1 -0 -1 1 1 -0 0 1 0 1 0 -1 -3 -1 -0 -2 -2 -2 -0 1 1 -2 -3
3 10 4 -11 -10 -13 -15 -10 13 3 2 -3 -5 -3 -1 -6 2 2 9 4 2 -1 0 2 1 -2 -1 -1 1 0 1 1 -0 3 -2 1 -1 -1 -0 0 -1 -0 -1 -2 -2 -2 -3 1 0
Height
5893 5893 5892 5894 5896 5896 5896 5896 5897 5897 5900 5900 5901 5900 5901 5902 5901 5903 5903 5900 5900 5901 5901 5902 5903 5903 5904 5904 5904 5904 5905 5906 5905 5906 5904 5904 5905 5905 5906 5905 5906 5906 5905 5904 5904 5904 5904 5905 5905
5894 5895 5893 5893 5894 5895 5898 5899 5898 5899 5900 5901 5902 5902 5902 5903 5902 5903 5905 5903 5903 5903 5904 5904 5905 5905 5906 5906 5906 5907 5908 5908 5907 5906 5905 5906 5906 5907 5907 5907 5907 5907 5906 5905 5905 5905 5906 5906 5906
5897 5895 5895 5893 5894 5898 5900 5900 5899 5902 5901 5902 5901 5902 5902 5902 5903 5904 5906 5906 5905 5905 5905 5905 5906 5907 5907 5908 5909 5909 5910 5909 5908 5907 5907 5907 5907 5908 5908 5908 5908 5907 5906 5905 5905 5905 5906 5906 5906
5894 5894 5894 5893 5895 5898 5902 5903 5903 5902 5902 5901 5901 5903 5903 5902 5903 5905 5907 5908 5907 5908 5907 5906 5907 5908 5909 5909 5910 5910 5910 5910 5908 5908 5907 5907 5908 5909 5909 5909 5909 5907 5907 5907 5907 5907 5907 5905 5906
5894 5893 5894 5895 5895 5898 5902 5902 5904 5904 5903 5902 5904 5904 5905 5904 5903 5905 5907 5908 5909 5909 5908 5908 5909 5909 5910 5910 5910 5911 5911 5910 5909 5908 5908 5909 5910 5910 5910 5910 5910 5909 5908 5907 5907 5908 5906 5905 5905
5901 5898 5898 5896 5895 5897 5902 5905 5907 5905 5903 5902 5905 5905 5906 5905 5904 5906 5908 5909 5910 5909 5909 5909 5910 5910 5910 5910 5910 5911 5911 5910 5910 5910 5911 5911 5911 5912 5911 5911 5910 5910 5910 5908 5907 5907 5906 5906 5906
5901 5901 5902 5900 5898 5897 5901 5903 5906 5907 5904 5905 5904 5905 5908 5907 5906 5907 5909 5910 5910 5909 5909 5911 5910 5910 5911 5911 5911 5911 5911 5912 5912 5912 5912 5913 5914 5913 5912 5912 5912 5912 5911 5910 5909 5907 5908 5909 5907
5900 5904 5905 5905 5904 5903 5904 5906 5907 5908 5905 5904 5906 5906 5908 5910 5909 5909 5911 5911 5910 5910 5911 5911 5911 5911 5912 5912 5912 5913 5914 5915 5914 5914 5915 5915 5915 5915 5913 5914 5915 5914 5912 5911 5910 5909 5910 5908 5909
5902 5905 5905 5904 5903 5903 5902 5906 5908 5908 5906 5905 5905 5907 5909 5909 5910 5911 5911 5912 5911 5911 5912 5912 5912 5912 5913 5913 5914 5915 5916 5917 5916 5917 5917 5917 5917 5917 5917 5916 5917 5918 5916 5914 5912 5912 5913 5912 5911
5903 5901 5902 5903 5901 5899 5900 5902 5907 5908 5907 5906 5906 5907 5908 5909 5910 5910 5911 5912 5912 5913 5913 5913 5913 5914 5914 5915 5916 5917 5918 5918 5919 5919 5919 5919 5919 5920 5920 5919 5919 5921 5920 5917 5915 5915 5915 5914 5914
5901 5897 5898 5900 5900 5902 5900 5900 5905 5906 5909 5908 5908 5907 5907 5908 5909 5908 5909 5911 5912 5913 5914 5914 5915 5915 5916 5916 5917 5918 5919 5920 5921 5921 5921 5922 5922 5923 5922 5923 5922 5923 5922 5920 5919 5918 5917 5915 5914
5899 5894 5897 5902 5902 5905 5902 5901 5905 5910 5911 5906 5905 5906 5905 5906 5906 5906 5908 5910 5911 5912 5914 5915 5915 5916 5917 5918 5918 5919 5921 5923 5923 5923 5924 5924 5925 5926 5925 5925 5925 5924 5923 5921 5921 5921 5919 5917 5916
5897 5894 5894 5899 5904 5906 5905 5902 5901 5904 5909 5904 5905 5905 5904 5903 5905 5906 5907 5909 5911 5913 5914 5915 5916 5917 5918 5919 5920 5920 5922 5924 5925 5925 5926 5927 5927 5928 5928 5927 5927 5925 5923 5922 5922 5922 5921 5920 5919
5896 5893 5893 5894 5900 5906 5906 5906 5905 5907 5907 5903 5904 5905 5904 5904 5904 5906 5907 5908 5911 5912 5914 5916 5917 5919 5920 5921 5921 5922 5923 5924 5926 5927 5927 5928 5930 5929 5929 5928 5928 5926 5926 5924 5924 5923 5922 5921 5920
5893 5895 5894 5896 5900 5902 5904 5904 5904 5908 5907 5904 5904 5905 5907 5905 5905 5905 5908 5909 5911 5913 5915 5917 5919 5920 5921 5922 5922 5923 5923 5924 5925 5927 5928 5929 5931 5930 5930 5930 5929 5928 5927 5925 5924 5923 5922 5921 5920
5893 5895 5896 5898 5897 5900 5902 5902 5904 5907 5908 5903 5902 5905 5906 5907 5905 5905 5907 5910 5911 5914 5917 5918 5920 5920 5922 5923 5924 5924 5924 5924 5926 5927 5928 5930 5930 5930 5930 5930 5929 5928 5926 5926 5925 5923 5922 5921 5920
5890 5896 5897 5896 5893 5896 5900 5901 5902 5907 5907 5902 5904 5901 5904 5907 5909 5906 5908 5910 5912 5915 5917 5919 5920 5920 5923 5924 5924 5924 5926 5927 5927 5928 5929 5929 5929 5930 5930 5930 5930 5928 5927 5925 5923 5922 5921 5920 5919
5889 5893 5896 5895 5899 5897 5899 5899 5898 5902 5899 5900 5903 5904 5905 5905 5908 5909 5909 5911 5913 5915 5918 5918 5919 5921 5924 5924 5924 5925 5926 5927 5927 5927 5928 5928 5929 5929 5930 5930 5929 5927 5926 5924 5923 5922 5920 5920 5918
5885 5889 5892 5894 5893 5892 5896 5898 5898 5898 5900 5901 5905 5906 5906 5907 5909 5911 5910 5911 5913 5915 5916 5917 5920 5921 5923 5924 5924 5924 5925 5926 5927 5928 5928 5929 5929 5930 5930 5929 5928 5926 5925 5924 5923 5922 5920 5919 5918
5879 5883 5889 5891 5891 5891 5893 5897 5895 5895 5897 5900 5903 5905 5907 5906 5909 5910 5912 5912 5913 5914 5916 5917 5918 5920 5921 5922 5923 5924 5925 5926 5927 5927 5927 5928 5929 5928 5928 5927 5926 5925 5924 5923 5921 5920 5918 5917 5915
5874 5878 5885 5889 5887 5887 5889 5893 5892 5894 5893 5897 5901 5905 5907 5906 5907 5909 5911 5912 5913 5915 5916 5917 5917 5918 5919 5920 5921 5922 5924 5926 5926 5926 5927 5928 5928 5928 5927 5926 5925 5924 5923 5922 5920 5918 5916 5914 5912
5868 5877 5882 5883 5881 5884 5884 5888 5890 5892 5892 5893 5898 5903 5906 5906 5906 5907 5908 5909 5910 5912 5914 5916 5917 5917 5917 5918 5920 5921 5923 5924 5924 5925 5926 5927 5926 5926 5925 5925 5923 5922 5921 5919 5918 5917 5915 5912 5909
5868 5870 5874 5878 5878 5879 5878 5880 5887 5890 5889 5889 5895 5901 5903 5904 5903 5904 5906 5906 5907 5908 5910 5912 5915 5915 5916 5917 5919 5920 5921 5922 5923 5924 5924 5925 5924 5923 5923 5921 5920 5919 5918 5918 5917 5914 5912 5909 5907
5862 5862 5867 5870 5871 5864 5873 5875 5878 5880 5887 5890 5891 5896 5899 5901 5902 5902 5903 5905 5905 5906 5906 5907 5910 5913 5914 5915 5916 5917 5918 5919 5920 5921 5922 5922 5922 5921 5920 5919 5917 5917 5917 5916 5914 5911 5909 5906 5904
5850 5854 5855 5857 5854 5852 5867 5866 5872 5876 5881 5885 5887 5891 5893 5897 5900 5899 5902 5902 5903 5903 5904 5904 5905 5907 5910 5912 5913 5914 5915 5916 5917 5918 5919 5920 5920 5919 5918 5916 5915 5916 5915 5914 5912 5909 5906 5903 5900
5842 5845 5845 5844 5847 5852 5860 5851 5862 5872 5875 5878 5883 5885 5888 5892 5895 5897 5897 5900 5900 5900 5901 5901 5901 5902 5904 5907 5908 5908 5910 5912 5913 5915 5916 5916 5916 5915 5915 5914 5914 5914 5913 5911 5907 5905 5903 5900 5897
5837 5831 5843 5843 5847 5847 5849 5850 5859 5864 5867 5872 5876 5880 5884 5887 5889 5895 5896 5897 5896 5897 5898 5899 5898 5899 5900 5901 5902 5904 5904 5906 5908 5910 5911 5912 5911 5912 5913 5913 5912 5911 5910 5908 5906 5903 5900 5897 5894
5822 5832 5831 5830 5833 5834 5839 5843 5847 5858 5865 5868 5871 5873 5875 5880 5885 5891 5890 5893 5894 5894 5894 5896 5896 5897 5897 5897 5898 5898 5898 5900 5903 5906 5907 5908 5909 5910 5911 5910 5909 5908 5907 5905 5903 5901 5898 5895 5892
5815 5815 5819 5824 5826 5827 5832 5829 5843 5853 5858 5859 5862 5865 5870 5875 5879 5884 5888 5891 5891 5890 5891 5892 5893 5893 5894 5895 5895 5894 5893 5894 5898 5901 5902 5904 5906 5907 5907 5906 5905 5903 5903 5903 5902 5899 5896 5892 5889
5802 5806 5810 5811 5817 5820 5825 5820 5839 5845 5851 5852 5855 5859 5863 5869 5872 5876 5883 5885 5885 5885 5887 5889 5889 5889 5891 5891 5891 5891 5890 5890 5893 5896 5898 5900 5901 5903 5903 5903 5902 5900 5899 5898 5897 5895 5891 5889 5885